Time,TemperatureF,DewpointF,PressureIn,WindDirection,WindDirectionDegrees,WindSpeedMPH,WindSpeedGustMPH,Humidity,HourlyPrecipIn,Conditions,Clouds,dailyrainin,SoftwareType,DateUTC
2013-02-08 00:10:00,41.2,37.2,30.12,SE,124,0.0,0.0,89,0.04,,,0.00,WMR918D-Custom,2013-02-08 08:10:00,
2013-02-08 00:20:00,41.0,37.0,30.12,ESE,123,0.0,0.0,89,0.04,,,0.00,WMR918D-Custom,2013-02-08 08:20:00,
2013-02-08 00:30:00,40.6,37.0,30.09,SE,124,0.0,0.0,90,0.04,,,0.00,WMR918D-Custom,2013-02-08 08:30:00,
2013-02-08 00:40:00,40.3,36.7,30.09,ESE,123,0.0,0.0,90,0.04,,,0.00,WMR918D-Custom,2013-02-08 08:40:00,
2013-02-08 00:50:00,40.1,36.9,30.09,SE,124,0.0,0.0,91,0.04,,,0.00,WMR918D-Custom,2013-02-08 08:50:00,
2013-02-08 01:00:00,39.9,36.7,30.09,SE,124,0.0,0.0,91,0.00,,,0.00,WMR918D-Custom,2013-02-08 09:00:00,
2013-02-08 01:10:00,39.9,36.7,30.09,SE,124,0.0,0.0,91,0.00,,,0.00,WMR918D-Custom,2013-02-08 09:10:00,
2013-02-08 01:20:00,39.7,36.9,30.09,ESE,123,0.0,0.0,92,0.00,,,0.00,WMR918D-Custom,2013-02-08 09:20:00,
2013-02-08 01:30:00,39.7,36.9,30.09,SE,124,0.0,0.0,92,0.00,,,0.00,WMR918D-Custom,2013-02-08 09:30:00,
2013-02-08 01:40:00,39.7,36.9,30.06,SE,124,0.0,0.0,92,0.00,,,0.00,WMR918D-Custom,2013-02-08 09:40:00,
2013-02-08 01:50:00,39.9,37.4,30.06,SE,125,0.0,0.0,93,0.00,,,0.00,WMR918D-Custom,2013-02-08 09:50:00,
2013-02-08 02:00:00,40.1,37.6,30.06,ESE,123,0.0,0.0,93,0.00,,,0.00,WMR918D-Custom,2013-02-08 10:00:00,
2013-02-08 02:10:00,40.5,38.3,30.09,North,353,0.0,0.0,94,0.00,,,0.00,WMR918D-Custom,2013-02-08 10:10:00,
2013-02-08 02:20:00,41.0,38.8,30.09,North,2,0.0,0.0,94,0.00,,,0.00,WMR918D-Custom,2013-02-08 10:20:00,
2013-02-08 02:30:00,41.4,39.2,30.06,NW,320,0.0,0.0,94,0.00,,,0.00,WMR918D-Custom,2013-02-08 10:30:00,
2013-02-08 02:40:00,41.9,40.1,30.06,North,353,0.0,0.0,95,0.00,,,0.00,WMR918D-Custom,2013-02-08 10:40:00,
2013-02-08 02:50:00,42.3,40.1,30.06,NNW,328,0.0,0.0,94,0.00,,,0.00,WMR918D-Custom,2013-02-08 10:50:00,
2013-02-08 03:00:00,42.4,39.9,30.06,North,357,0.0,0.0,93,0.00,,,0.00,WMR918D-Custom,2013-02-08 11:00:00,
2013-02-08 03:10:00,42.4,39.9,30.06,NNE,13,0.0,0.0,93,0.00,,,0.00,WMR918D-Custom,2013-02-08 11:10:00,
2013-02-08 03:20:00,42.4,39.6,30.06,NNW,344,0.0,2.2,92,0.00,,,0.00,WMR918D-Custom,2013-02-08 11:20:00,
2013-02-08 03:30:00,42.4,39.2,30.06,North,1,0.0,0.0,91,0.00,,,0.00,WMR918D-Custom,2013-02-08 11:30:00,
2013-02-08 03:40:00,42.4,39.2,30.06,North,0,0.0,0.0,91,0.00,,,0.00,WMR918D-Custom,2013-02-08 11:40:00,
2013-02-08 03:50:00,42.4,39.6,30.06,North,0,0.0,0.0,92,0.00,,,0.00,WMR918D-Custom,2013-02-08 11:50:00,
2013-02-08 04:00:00,42.4,39.6,30.06,North,0,0.0,0.0,92,0.00,,,0.00,WMR918D-Custom,2013-02-08 12:00:00,
2013-02-08 04:10:00,42.4,39.6,30.06,North,0,0.0,0.0,92,0.00,,,0.00,WMR918D-Custom,2013-02-08 12:10:00,
2013-02-08 04:20:00,42.4,39.9,30.06,North,0,0.0,0.0,93,0.00,,,0.00,WMR918D-Custom,2013-02-08 12:20:00,
2013-02-08 04:30:00,42.4,39.9,30.06,North,0,0.0,0.0,93,0.00,,,0.00,WMR918D-Custom,2013-02-08 12:30:00,
2013-02-08 04:40:00,42.4,40.3,30.06,North,0,0.0,0.0,94,0.00,,,0.00,WMR918D-Custom,2013-02-08 12:40:00,
2013-02-08 04:50:00,42.4,40.3,30.06,North,0,0.0,0.0,94,0.00,,,0.00,WMR918D-Custom,2013-02-08 12:50:00,
2013-02-08 05:00:00,42.3,40.1,30.06,North,7,0.0,0.0,94,0.00,,,0.00,WMR918D-Custom,2013-02-08 13:00:00,
2013-02-08 05:10:00,42.3,40.1,30.06,SSW,192,0.0,0.0,94,0.00,,,0.00,WMR918D-Custom,2013-02-08 13:10:00,
2013-02-08 05:20:00,42.3,40.1,30.06,SSW,192,0.0,0.0,94,0.00,,,0.00,WMR918D-Custom,2013-02-08 13:20:00,
2013-02-08 05:30:00,42.3,40.1,30.06,SSW,192,0.0,0.0,94,0.00,,,0.00,WMR918D-Custom,2013-02-08 13:30:00,
2013-02-08 05:40:00,42.4,40.3,30.06,SSW,192,0.0,0.0,94,0.00,,,0.00,WMR918D-Custom,2013-02-08 13:40:00,
2013-02-08 05:50:00,42.3,40.1,30.06,SSW,192,0.0,0.0,94,0.00,,,0.00,WMR918D-Custom,2013-02-08 13:50:00,
2013-02-08 06:00:00,42.3,40.1,30.06,SSW,192,0.0,0.0,94,0.00,,,0.00,WMR918D-Custom,2013-02-08 14:00:00,
2013-02-08 06:10:00,42.3,40.5,30.06,SSW,192,0.0,0.0,95,0.00,,,0.00,WMR918D-Custom,2013-02-08 14:10:00,
2013-02-08 06:20:00,42.1,40.3,30.06,SSW,192,0.0,0.0,95,0.00,,,0.00,WMR918D-Custom,2013-02-08 14:20:00,
2013-02-08 06:30:00,42.1,40.3,30.06,SSW,193,0.0,0.0,95,0.00,,,0.00,WMR918D-Custom,2013-02-08 14:30:00,
2013-02-08 06:40:00,42.1,40.3,30.06,SSW,192,0.0,0.0,95,0.00,,,0.00,WMR918D-Custom,2013-02-08 14:40:00,
2013-02-08 06:50:00,42.1,40.3,30.06,SSW,192,0.0,0.0,95,0.00,,,0.00,WMR918D-Custom,2013-02-08 14:50:00,
2013-02-08 07:00:00,42.3,40.8,30.09,SSW,192,0.0,0.0,96,0.04,,,0.04,WMR918D-Custom,2013-02-08 15:00:00,
2013-02-08 07:10:00,42.3,40.8,30.09,SSW,192,0.0,0.0,96,0.04,,,0.04,WMR918D-Custom,2013-02-08 15:10:00,
2013-02-08 07:20:00,42.3,40.8,30.09,South,191,0.0,0.0,96,0.04,,,0.04,WMR918D-Custom,2013-02-08 15:20:00,
2013-02-08 07:30:00,42.4,41.0,30.06,South,191,0.0,0.0,96,0.04,,,0.04,WMR918D-Custom,2013-02-08 15:30:00,
2013-02-08 07:40:00,42.6,41.2,30.09,SSW,192,0.0,0.0,96,0.04,,,0.04,WMR918D-Custom,2013-02-08 15:40:00,
2013-02-08 07:50:00,42.8,41.4,30.09,SSW,192,0.0,0.0,96,0.04,,,0.04,WMR918D-Custom,2013-02-08 15:50:00,
2013-02-08 08:00:00,42.8,41.4,30.09,SSW,192,0.0,0.0,96,0.00,,,0.04,WMR918D-Custom,2013-02-08 16:00:00,
2013-02-08 08:10:00,42.8,41.4,30.09,SSW,192,0.0,0.0,96,0.00,,,0.04,WMR918D-Custom,2013-02-08 16:10:00,
2013-02-08 08:20:00,43.5,42.1,30.09,SSW,192,0.0,0.0,96,0.00,,,0.04,WMR918D-Custom,2013-02-08 16:20:00,
2013-02-08 08:30:00,43.7,42.3,30.09,SSW,192,0.0,0.0,96,0.00,,,0.04,WMR918D-Custom,2013-02-08 16:30:00,
2013-02-08 08:40:00,44.2,42.8,30.09,SSW,192,0.0,0.0,96,0.00,,,0.04,WMR918D-Custom,2013-02-08 16:40:00,
2013-02-08 08:50:00,44.6,43.2,30.09,South,191,0.0,0.0,96,0.00,,,0.04,WMR918D-Custom,2013-02-08 16:50:00,
2013-02-08 09:00:00,45.5,44.1,30.09,NNW,341,2.7,2.7,96,0.00,,,0.04,WMR918D-Custom,2013-02-08 17:00:00,
2013-02-08 09:10:00,46.2,44.8,30.09,NNW,344,0.0,0.0,96,0.00,,,0.04,WMR918D-Custom,2013-02-08 17:10:00,
2013-02-08 09:20:00,46.2,44.1,30.09,NW,318,4.0,0.0,94,0.00,,,0.04,WMR918D-Custom,2013-02-08 17:20:00,
2013-02-08 09:30:00,46.4,43.9,30.09,NNW,337,4.0,4.0,93,0.00,,,0.04,WMR918D-Custom,2013-02-08 17:30:00,
2013-02-08 09:40:00,46.4,43.5,30.09,NW,313,0.0,0.0,92,0.00,,,0.04,WMR918D-Custom,2013-02-08 17:40:00,
2013-02-08 09:50:00,46.4,43.2,30.09,WNW,301,0.0,2.7,91,0.00,,,0.04,WMR918D-Custom,2013-02-08 17:50:00,
2013-02-08 10:00:00,46.2,42.6,30.12,NW,311,4.0,4.0,90,0.00,,,0.04,WMR918D-Custom,2013-02-08 18:00:00,
2013-02-08 10:10:00,46.4,42.1,30.12,NW,304,5.4,5.4,88,0.00,,,0.04,WMR918D-Custom,2013-02-08 18:10:00,
2013-02-08 10:20:00,46.8,42.1,30.12,NW,314,4.0,4.0,87,0.00,,,0.04,WMR918D-Custom,2013-02-08 18:20:00,
2013-02-08 10:30:00,47.3,42.6,30.12,NW,321,0.0,3.1,87,0.00,,,0.04,WMR918D-Custom,2013-02-08 18:30:00,
2013-02-08 10:40:00,47.8,42.8,30.12,NNW,334,2.7,0.0,86,0.00,,,0.04,WMR918D-Custom,2013-02-08 18:40:00,
2013-02-08 10:50:00,48.2,42.4,30.12,NW,313,2.2,4.0,84,0.00,,,0.04,WMR918D-Custom,2013-02-08 18:50:00,
2013-02-08 11:00:00,48.6,42.4,30.12,NNE,15,0.0,2.2,83,0.00,,,0.04,WMR918D-Custom,2013-02-08 19:00:00,
2013-02-08 11:10:00,49.1,42.6,30.12,NW,309,4.5,8.3,82,0.00,,,0.04,WMR918D-Custom,2013-02-08 19:10:00,
2013-02-08 11:20:00,49.3,42.4,30.12,North,1,0.0,0.0,81,0.00,,,0.04,WMR918D-Custom,2013-02-08 19:20:00,
2013-02-08 11:30:00,49.6,42.1,30.12,NNW,338,0.0,0.0,79,0.00,,,0.04,WMR918D-Custom,2013-02-08 19:30:00,
2013-02-08 11:40:00,50.0,42.1,30.12,NW,320,2.7,3.6,78,0.00,,,0.04,WMR918D-Custom,2013-02-08 19:40:00,
2013-02-08 11:50:00,49.8,41.2,30.12,NNW,327,3.6,3.6,76,0.00,,,0.04,WMR918D-Custom,2013-02-08 19:50:00,
2013-02-08 12:00:00,50.0,41.0,30.12,NNE,20,0.0,0.0,75,0.00,,,0.04,WMR918D-Custom,2013-02-08 20:00:00,
2013-02-08 12:10:00,50.2,40.1,30.12,ENE,62,2.2,2.7,72,0.00,,,0.04,WMR918D-Custom,2013-02-08 20:10:00,
2013-02-08 12:20:00,50.4,39.6,30.12,WNW,292,2.7,5.8,70,0.00,,,0.04,WMR918D-Custom,2013-02-08 20:20:00,
2013-02-08 12:30:00,50.9,39.4,30.09,West,263,3.1,3.1,68,0.00,,,0.04,WMR918D-Custom,2013-02-08 20:30:00,
2013-02-08 12:40:00,51.1,39.6,30.09,NW,312,3.1,7.6,68,0.00,,,0.04,WMR918D-Custom,2013-02-08 20:40:00,
2013-02-08 12:50:00,51.3,39.0,30.09,East,97,0.0,2.2,66,0.00,,,0.04,WMR918D-Custom,2013-02-08 20:50:00,
2013-02-08 13:00:00,51.4,39.2,30.09,North,0,3.1,3.1,66,0.00,,,0.04,WMR918D-Custom,2013-02-08 21:00:00,
2013-02-08 13:10:00,51.6,39.4,30.09,East,99,3.6,0.0,66,0.00,,,0.04,WMR918D-Custom,2013-02-08 21:10:00,
2013-02-08 13:20:00,51.8,38.8,30.09,West,259,3.6,3.6,64,0.00,,,0.04,WMR918D-Custom,2013-02-08 21:20:00,
2013-02-08 13:30:00,52.0,38.7,30.09,NE,54,3.1,3.1,63,0.00,,,0.04,WMR918D-Custom,2013-02-08 21:30:00,
2013-02-08 13:40:00,52.3,39.0,30.09,North,350,4.0,4.0,63,0.00,,,0.04,WMR918D-Custom,2013-02-08 21:40:00,
2013-02-08 13:50:00,52.3,38.7,30.09,North,357,0.0,4.0,62,0.00,,,0.04,WMR918D-Custom,2013-02-08 21:50:00,
2013-02-08 14:00:00,52.5,38.8,30.09,WSW,246,0.0,5.8,62,0.00,,,0.04,WMR918D-Custom,2013-02-08 22:00:00,
2013-02-08 14:10:00,53.1,39.0,30.09,NW,323,0.0,0.0,61,0.00,,,0.04,WMR918D-Custom,2013-02-08 22:10:00,
2013-02-08 14:20:00,53.2,38.8,30.09,SSW,211,0.0,0.0,60,0.00,,,0.04,WMR918D-Custom,2013-02-08 22:20:00,
2013-02-08 14:30:00,53.4,38.7,30.06,NW,320,0.0,0.0,59,0.00,,,0.04,WMR918D-Custom,2013-02-08 22:30:00,
2013-02-08 14:40:00,53.6,39.2,30.06,WSW,243,2.2,3.1,60,0.00,,,0.04,WMR918D-Custom,2013-02-08 22:40:00,
2013-02-08 14:50:00,53.8,38.7,30.06,WSW,254,5.4,5.4,58,0.00,,,0.04,WMR918D-Custom,2013-02-08 22:50:00,
2013-02-08 15:00:00,54.0,38.8,30.06,NNW,336,5.8,5.8,58,0.00,,,0.04,WMR918D-Custom,2013-02-08 23:00:00,
2013-02-08 15:10:00,54.1,38.7,30.06,South,185,3.6,3.6,57,0.00,,,0.04,WMR918D-Custom,2013-02-08 23:10:00,
2013-02-08 15:20:00,54.1,38.7,30.06,NNW,327,4.5,4.5,57,0.00,,,0.04,WMR918D-Custom,2013-02-08 23:20:00,
2013-02-08 15:30:00,54.1,38.7,30.06,WSW,255,3.1,5.8,57,0.00,,,0.04,WMR918D-Custom,2013-02-08 23:30:00,
2013-02-08 15:40:00,54.5,39.4,30.06,West,271,3.6,4.9,58,0.00,,,0.04,WMR918D-Custom,2013-02-08 23:40:00,
2013-02-08 15:50:00,54.3,38.8,30.06,West,276,6.3,6.3,57,0.00,,,0.04,WMR918D-Custom,2013-02-08 23:50:00,
2013-02-08 16:00:00,54.3,39.2,30.06,WNW,299,4.0,4.0,58,0.00,,,0.04,WMR918D-Custom,2013-02-09 00:00:00,
2013-02-08 16:10:00,54.1,39.0,30.06,West,264,0.0,2.2,58,0.00,,,0.04,WMR918D-Custom,2013-02-09 00:10:00,
2013-02-08 16:20:00,54.0,38.8,30.06,SW,216,2.7,2.7,58,0.00,,,0.04,WMR918D-Custom,2013-02-09 00:20:00,
2013-02-08 16:30:00,53.6,38.5,30.06,West,266,0.0,0.0,58,0.00,,,0.04,WMR918D-Custom,2013-02-09 00:30:00,
2013-02-08 16:40:00,53.2,38.1,30.06,West,268,0.0,0.0,58,0.00,,,0.04,WMR918D-Custom,2013-02-09 00:40:00,
2013-02-08 16:50:00,52.9,37.8,30.06,West,265,3.1,3.1,58,0.00,,,0.04,WMR918D-Custom,2013-02-09 00:50:00,
2013-02-08 17:00:00,52.3,37.2,30.06,NW,310,2.7,0.0,58,0.00,,,0.04,WMR918D-Custom,2013-02-09 01:00:00,
2013-02-08 17:10:00,52.0,37.2,30.06,SW,233,0.0,0.0,59,0.00,,,0.04,WMR918D-Custom,2013-02-09 01:10:00,
2013-02-08 17:20:00,51.6,37.6,30.06,NW,312,0.0,0.0,61,0.00,,,0.04,WMR918D-Custom,2013-02-09 01:20:00,
2013-02-08 17:30:00,50.9,37.2,30.06,SSW,208,0.0,0.0,62,0.00,,,0.04,WMR918D-Custom,2013-02-09 01:30:00,
2013-02-08 17:40:00,50.2,37.2,30.06,SSW,209,0.0,0.0,64,0.00,,,0.04,WMR918D-Custom,2013-02-09 01:40:00,
2013-02-08 17:50:00,49.6,37.0,30.06,NW,318,0.0,0.0,65,0.00,,,0.04,WMR918D-Custom,2013-02-09 01:50:00,
2013-02-08 18:00:00,49.1,36.9,30.06,NW,318,0.0,0.0,66,0.00,,,0.04,WMR918D-Custom,2013-02-09 02:00:00,
2013-02-08 18:10:00,48.4,36.9,30.06,NW,318,0.0,0.0,68,0.00,,,0.04,WMR918D-Custom,2013-02-09 02:10:00,
2013-02-08 18:20:00,47.7,36.9,30.06,NE,48,0.0,0.0,70,0.00,,,0.04,WMR918D-Custom,2013-02-09 02:20:00,
2013-02-08 18:30:00,47.3,36.5,30.06,WNW,291,0.0,0.0,70,0.00,,,0.04,WMR918D-Custom,2013-02-09 02:30:00,
2013-02-08 18:40:00,46.8,36.3,30.06,WNW,291,0.0,0.0,71,0.00,,,0.04,WMR918D-Custom,2013-02-09 02:40:00,
2013-02-08 18:50:00,46.0,36.3,30.06,WNW,292,0.0,0.0,73,0.00,,,0.04,WMR918D-Custom,2013-02-09 02:50:00,
2013-02-08 19:00:00,45.5,36.1,30.06,ESE,117,0.0,0.0,74,0.00,,,0.04,WMR918D-Custom,2013-02-09 03:00:00,
2013-02-08 19:10:00,45.3,36.3,30.06,SSW,194,0.0,0.0,75,0.00,,,0.04,WMR918D-Custom,2013-02-09 03:10:00,
2013-02-08 19:20:00,45.3,36.3,30.06,WSW,242,0.0,0.0,75,0.00,,,0.04,WMR918D-Custom,2013-02-09 03:20:00,
2013-02-08 19:30:00,44.8,35.8,30.06,ESE,103,0.0,0.0,75,0.00,,,0.04,WMR918D-Custom,2013-02-09 03:30:00,
2013-02-08 19:40:00,44.4,36.1,30.06,West,276,0.0,0.0,77,0.00,,,0.04,WMR918D-Custom,2013-02-09 03:40:00,
2013-02-08 19:50:00,44.2,36.0,30.06,SW,225,0.0,0.0,77,0.00,,,0.04,WMR918D-Custom,2013-02-09 03:50:00,
2013-02-08 20:00:00,44.1,36.1,30.06,South,184,0.0,0.0,78,0.00,,,0.04,WMR918D-Custom,2013-02-09 04:00:00,
2013-02-08 20:10:00,43.9,36.0,30.09,ESE,109,0.0,0.0,78,0.00,,,0.04,WMR918D-Custom,2013-02-09 04:10:00,
2013-02-08 20:20:00,43.5,36.0,30.09,ESE,109,0.0,0.0,79,0.00,,,0.04,WMR918D-Custom,2013-02-09 04:20:00,
2013-02-08 20:30:00,43.3,36.1,30.09,ESE,109,0.0,0.0,80,0.00,,,0.04,WMR918D-Custom,2013-02-09 04:30:00,
2013-02-08 20:40:00,43.0,35.8,30.09,ESE,108,0.0,0.0,80,0.00,,,0.04,WMR918D-Custom,2013-02-09 04:40:00,
2013-02-08 20:50:00,42.6,35.8,30.09,ESE,109,0.0,0.0,81,0.00,,,0.04,WMR918D-Custom,2013-02-09 04:50:00,
2013-02-08 21:10:00,42.3,35.8,30.09,ESE,109,0.0,0.0,82,0.00,,,0.04,WMR918D-Custom,2013-02-09 05:10:00,
2013-02-08 21:20:00,41.9,35.8,30.09,ESE,108,0.0,0.0,83,0.00,,,0.04,WMR918D-Custom,2013-02-09 05:20:00,
2013-02-08 21:30:00,41.5,35.4,30.09,ESE,109,0.0,0.0,83,0.00,,,0.04,WMR918D-Custom,2013-02-09 05:30:00,
2013-02-08 21:40:00,41.0,34.9,30.09,ESE,109,0.0,0.0,83,0.00,,,0.04,WMR918D-Custom,2013-02-09 05:40:00,
2013-02-08 21:50:00,40.8,35.1,30.09,ESE,110,0.0,0.0,84,0.00,,,0.04,WMR918D-Custom,2013-02-09 05:50:00,
2013-02-08 22:00:00,40.5,35.1,30.09,ESE,109,0.0,0.0,85,0.00,,,0.04,WMR918D-Custom,2013-02-09 06:00:00,
2013-02-08 22:10:00,40.3,34.9,30.09,ESE,109,0.0,0.0,85,0.00,,,0.04,WMR918D-Custom,2013-02-09 06:10:00,
2013-02-08 22:20:00,39.9,34.5,30.09,ESE,109,0.0,0.0,85,0.00,,,0.04,WMR918D-Custom,2013-02-09 06:20:00,
2013-02-08 22:30:00,39.7,34.3,30.09,ESE,110,0.0,0.0,85,0.00,,,0.04,WMR918D-Custom,2013-02-09 06:30:00,
2013-02-08 22:40:00,39.4,34.3,30.09,ESE,109,0.0,0.0,86,0.00,,,0.04,WMR918D-Custom,2013-02-09 06:40:00,
2013-02-08 22:50:00,39.2,34.2,30.09,ESE,109,0.0,0.0,86,0.00,,,0.04,WMR918D-Custom,2013-02-09 06:50:00,
2013-02-08 23:00:00,38.8,33.8,30.09,ESE,109,0.0,0.0,86,0.00,,,0.04,WMR918D-Custom,2013-02-09 07:00:00,
2013-02-08 23:10:00,38.7,34.0,30.09,ESE,109,0.0,0.0,87,0.00,,,0.04,WMR918D-Custom,2013-02-09 07:10:00,
2013-02-08 23:20:00,38.7,34.0,30.09,ESE,109,0.0,0.0,87,0.00,,,0.04,WMR918D-Custom,2013-02-09 07:20:00,
2013-02-08 23:30:00,38.5,33.8,30.09,ESE,109,0.0,0.0,87,0.00,,,0.04,WMR918D-Custom,2013-02-09 07:30:00,
2013-02-08 23:40:00,38.1,33.4,30.09,ESE,108,0.0,0.0,87,0.00,,,0.04,WMR918D-Custom,2013-02-09 07:40:00,
2013-02-08 23:50:00,38.1,33.4,30.09,ESE,110,0.0,0.0,87,0.00,,,0.04,WMR918D-Custom,2013-02-09 07:50:00,